Colorado Springs, CO

2:52 PM MDT on September 29, 2016 (GMT -0600)
Usaf Academy

Weather History for KAFF - November, 2013

Change the Weather History Date:

Wednesday, November 13, 2013

  Actual Average Record
Temperature  
Mean Temperature 45 °F -  
Max Temperature 65 °F 48 °F 77 °F (1999)
Min Temperature 25 °F 25 °F -9 °F (2000)
Degree Days  
Heating Degree Days 20    
Moisture  
Dew Point 4 °F    
Average Humidity 25    
Maximum Humidity 79    
Minimum Humidity 4    
Precipitation  
Precipitation 0.00 in - - ()
Sea Level Pressure  
Sea Level Pressure 30.17 in    
Wind  
Wind Speed 7 mph (North)    
Max Wind Speed 12 mph    
Max Gust Speed -    
Visibility 10 miles    
Events      
Averages and records for this station are not official NWS values.
T = Trace of Precipitation, MM = Missing Value Source: NWS Daily Summary

Daily Weather History Graph

Daily Weather History Graph

Search for Another Location

Airport or City:

Trip Planner

Search our weather history database for the weather conditions in past years. The results will help you decide how hot, cold, wet, or windy it might be!

Date:

Astronomy

Nov. 13, 2013 Rise Set
Actual Time 6:40 AM MST 4:46 PM MST
Civil Twilight 6:11 AM MST 5:14 PM MST
Nautical Twilight 5:39 AM MST 5:47 PM MST
Astronomical Twilight 5:08 AM MST 6:18 PM MST
Moon 2:33 PM MST (11/13) 2:37 AM MST (11/13)
Length of Visible Light 11h 03m
Length of Day
10h 06m
Waxing Gibbous, 85% of the Moon is Illuminated
Nov 13
Waxing Gibbous
Nov 17
Full
Nov 25
Last Quarter
Dec 2
New
Dec 9
First Quarter

Hourly Weather History & Observations

Time (MST) Temp. Windchill Dew Point Humidity Pressure Visibility Wind Dir Wind Speed Gust Speed Precip Events Conditions
12:58 AM 25.9 °F 16.6 °F 20.1 °F 79% 30.39 in 10.0 mi North 9.2 mph - N/A   Clear
1:58 AM 29.8 °F - 16.9 °F 59% 30.35 in 10.0 mi Variable 1.2 mph - N/A   Clear
2:58 AM 30.7 °F 26.0 °F 14.4 °F 51% 30.34 in 10.0 mi Variable 4.6 mph - N/A   Clear
3:58 AM 30.4 °F 25.6 °F 12.7 °F 48% 30.33 in 10.0 mi Variable 4.6 mph - N/A   Clear
4:58 AM 44.6 °F 38.8 °F 7.0 °F 21% 30.30 in 10.0 mi NNE 11.5 mph - N/A   Clear
5:58 AM 36.9 °F 30.7 °F 7.3 °F 29% 30.34 in 10.0 mi North 8.1 mph - N/A   Clear
6:58 AM 35.6 °F 31.7 °F 7.7 °F 31% 30.35 in 10.0 mi North 4.6 mph - N/A   Clear
7:58 AM 43.0 °F 38.8 °F 7.9 °F 24% 30.35 in 10.0 mi NE 6.9 mph - N/A   Clear
8:58 AM 53.8 °F - 5.7 °F 14% 30.29 in 10.0 mi NE 4.6 mph - N/A   Clear
9:58 AM 61.2 °F - -6.0 °F 6% 30.25 in 10.0 mi NW 6.9 mph - N/A   Clear
10:58 AM 62.4 °F - -7.2 °F 6% 30.20 in 10.0 mi NW 6.9 mph - N/A   Clear
11:58 AM 64.0 °F - -6.9 °F 6% 30.15 in 10.0 mi NE 8.1 mph - N/A   Clear
12:58 PM 65.7 °F - -7.1 °F 5% 30.09 in 10.0 mi South 5.8 mph - N/A   Clear
1:58 PM 65.8 °F - -11.6 °F 4% 30.04 in 10.0 mi SW 6.9 mph - N/A   Clear
2:58 PM 63.3 °F - -5.1 °F 6% 30.04 in 10.0 mi South 10.4 mph - N/A   Clear
3:58 PM 59.5 °F - -1.8 °F 8% 30.07 in 10.0 mi South 6.9 mph - N/A   Clear
4:58 PM 56.3 °F - 2.5 °F 11% 30.00 in 10.0 mi Variable 2.3 mph - N/A   Clear
5:58 PM 43.5 °F 38.3 °F 7.0 °F 22% 30.12 in 10.0 mi North 9.2 mph - N/A   Clear
6:58 PM 39.7 °F 34.3 °F 6.1 °F 25% 30.14 in 10.0 mi North 8.1 mph - N/A   Clear
7:58 PM 38.3 °F 32.5 °F 5.0 °F 25% 30.08 in 10.0 mi NNW 8.1 mph - N/A   Clear
8:58 PM 36.0 °F 29.6 °F 6.1 °F 29% 30.04 in 10.0 mi North 8.1 mph - N/A   Clear
9:58 PM 32.2 °F 25.0 °F 4.6 °F 31% 30.01 in 10.0 mi North 8.1 mph - N/A   Scattered Clouds
10:58 PM 36.9 °F 29.6 °F 6.4 °F 28% 29.95 in 10.0 mi NNW 10.4 mph - N/A   Partly Cloudy
11:58 PM 37.9 °F 32.1 °F 8.2 °F 29% 29.93 in 10.0 mi NNW 8.1 mph - N/A   Clear